QPF
0.00 0.00 0.00 0.00 0.00 0.00 0.00 0.00 0.00 0.00 0.00 0.00 0.00 0.00 0.00 0.00 0.00 0.00 0.00 0.00 0.00 0.00 0.00 0.00 0.00 0.00 0.00 0.01 0.00 0.00 0.00 0.00 0.00 0.00 0.00 0.00 0.00 0.00 0.00 0.00 0.00 0.00 0.00 0.00 0.00
0.00 0.00 0.00 0.00 0.00 0.00 0.00 0.00 0.00 0.00 0.00 0.00 0.00 0.00 0.00 0.00 0.00 0.00 0.00 0.00 0.00 0.00 0.00 0.00 0.00 0.00 0.01 0.01 0.00 0.00 0.00 0.00 0.00 0.00 0.00 0.00 0.00 0.00 0.00 0.00 0.00 0.00 0.00 0.00 0.00
0.00 0.00 0.00 0.00 0.00 0.00 0.00 0.00 0.00 0.00 0.00 0.00 0.00 0.00 0.00 0.00 0.00 0.00 0.00 0.00 0.00 0.00 0.00 0.00 0.00 0.01 0.01 0.01 0.01 0.00 0.00 0.00 0.00 0.00 0.00 0.00 0.00 0.00 0.00 0.00 0.00 0.00 0.00 0.00 0.01
0.00 0.00 0.00 0.00 0.00 0.00 0.00 0.00 0.00 0.00 0.00 0.00 0.00 0.00 0.00 0.00 0.00 0.00 0.00 0.00 0.00 0.00 0.00 0.00 0.00 0.00 0.00 0.00 0.00 0.01 0.00 0.00 0.00 0.00 0.00 0.00 0.00 0.00 0.00 0.00 0.00 0.00 0.00 0.01 0.02
0.00 0.00 0.00 0.00 0.00 0.00 0.00 0.00 0.00 0.00 0.00 0.00 0.00 0.00 0.00 0.00 0.00 0.00 0.00 0.00 0.00 0.00 0.00 0.00 0.00 0.01 0.00 0.00 0.00 0.00 0.00 0.00 0.00 0.00 0.00 0.00 0.00 0.00 0.00 0.00 0.00 0.00 0.00 0.02 0.03
0.00 0.00 0.00 0.00 0.00 0.00 0.00 0.00 0.00 0.00 0.00 0.00 0.00 0.00 0.00 0.00 0.00 0.00 0.00 0.00 0.00 0.00 0.00 0.00 0.00 0.00 0.00 0.00 0.01 0.00 0.00 0.00 0.00 0.00 0.00 0.00 0.00 0.00 0.00 0.00 0.00 0.00 0.00 0.01 0.06
0.00 0.00 0.00 0.00 0.00 0.00 0.00 0.00 0.00 0.00 0.00 0.00 0.00 0.00 0.00 0.00 0.00 0.00 0.00 0.00 0.00 0.00 0.00 0.00 0.00 0.00 0.00 0.00 0.00 0.01 0.01 0.00 0.00 0.00 0.00 0.00 0.00 0.00 0.00 0.00 0.00 0.00 0.00 0.00 0.06
0.00 0.00 0.00 0.00 0.00 0.00 0.00 0.00 0.00 0.00 0.00 0.00 0.00 0.00 0.00 0.00 0.00 0.00 0.00 0.00 0.00 0.00 0.00 0.00 0.00 0.00 0.00 0.00 0.00 0.03 0.06 0.03 0.00 0.00 0.00 0.03 0.01 0.00 0.00 0.00 0.00 0.00 0.00 0.00 0.01
0.00 0.00 0.00 0.00 0.00 0.00 0.00 0.00 0.00 0.00 0.00 0.00 0.00 0.00 0.00 0.00 0.00 0.00 0.00 0.00 0.00 0.00 0.00 0.00 0.00 0.00 0.00 0.00 0.01 0.02 0.05 0.02 0.01 0.00 0.00 0.00 0.00 0.00 0.00 0.00 0.00 0.00 0.00 0.00 0.00
0.00 0.00 0.00 0.00 0.00 0.00 0.00 0.00 0.00 0.00 0.00 0.00 0.00 0.00 0.00 0.00 0.00 0.00 0.00 0.00 0.00 0.00 0.00 0.00 0.00 0.00 0.00 0.00 0.01 0.01 0.03 0.03 0.02 0.01 0.03 0.02 0.00 0.00 0.00 0.00 0.00 0.00 0.00 0.00 0.00
0.00 0.00 0.00 0.00 0.00 0.00 0.00 0.00 0.00 0.00 0.00 0.00 0.00 0.00 0.00 0.00 0.00 0.00 0.00 0.00 0.00 0.00 0.00 0.00 0.00 0.00 0.00 0.00 0.00 0.02 0.05 0.05 0.00 0.00 0.04 0.09 0.04 0.00 0.00 0.00 0.00 0.00 0.00 0.00 0.00
0.00 0.00 0.00 0.00 0.00 0.00 0.00 0.00 0.00 0.00 0.00 0.00 0.00 0.00 0.00 0.00 0.00 0.00 0.00 0.00 0.00 0.00 0.00 0.00 0.00 0.00 0.00 0.00 0.00 0.00 0.00 0.01 0.00 0.00 0.00 0.01 0.01 0.00 0.00 0.00 0.00 0.00 0.00 0.00 0.00
0.00 0.00 0.00 0.00 0.00 0.00 0.00 0.00 0.00 0.00 0.00 0.00 0.00 0.00 0.00 0.00 0.00 0.00 0.00 0.00 0.00 0.00 0.00 0.00 0.00 0.00 0.00 0.00 0.00 0.00 0.00 0.00 0.00 0.00 0.00 0.00 0.01 0.00 0.00 0.00 0.00 0.00 0.00 0.00 0.00
0.00 0.00 0.00 0.00 0.00 0.00 0.00 0.00 0.00 0.00 0.00 0.00 0.00 0.00 0.00 0.00 0.00 0.00 0.00 0.00 0.00 0.00 0.00 0.00 0.00 0.00 0.00 0.00 0.00 0.00 0.00 0.00 0.00 0.00 0.01 0.01 0.03 0.00 0.00 0.00 0.00 0.00 0.00 0.00 0.00
0.00 0.00 0.00 0.00 0.00 0.00 0.00 0.00 0.00 0.00 0.00 0.00 0.00 0.00 0.00 0.00 0.00 0.00 0.00 0.00 0.00 0.00 0.00 0.00 0.00 0.00 0.00 0.00 0.01 0.03 0.00 0.00 0.00 0.00 0.02 0.01 0.05 0.00 0.00 0.00 0.00 0.00 0.00 0.00 0.00
0.00 0.00 0.00 0.00 0.00 0.00 0.00 0.00 0.00 0.00 0.00 0.00 0.00 0.00 0.00 0.00 0.00 0.00 0.00 0.00 0.00 0.00 0.00 0.00 0.00 0.00 0.00 0.00 0.01 0.01 0.03 0.01 0.00 0.02 0.06 0.00 0.01 0.00 0.01 0.00 0.00 0.00 0.00 0.00 0.00
0.00 0.00 0.00 0.00 0.00 0.00 0.00 0.00 0.00 0.00 0.00 0.00 0.00 0.00 0.00 0.00 0.00 0.00 0.00 0.00 0.00 0.00 0.00 0.00 0.00 0.00 0.00 0.00 0.00 0.04 0.07 0.02 0.02 0.03 0.03 0.00 0.00 0.01 0.00 0.00 0.00 0.00 0.00 0.00 0.00
0.00 0.00 0.00 0.00 0.00 0.00 0.00 0.00 0.00 0.00 0.00 0.00 0.00 0.00 0.00 0.00 0.00 0.00 0.00 0.00 0.00 0.00 0.01 0.01 0.00 0.00 0.00 0.01 0.07 0.05 0.10 0.03 0.03 0.01 0.01 0.00 0.00 0.00 0.00 0.00 0.00 0.00 0.00 0.00 0.00
0.00 0.00 0.00 0.00 0.00 0.00 0.00 0.00 0.00 0.00 0.00 0.00 0.00 0.00 0.00 0.00 0.00 0.00 0.00 0.00 0.00 0.00 0.03 0.02 0.00 0.00 0.00 0.00 0.08 0.05 0.05 0.04 0.06 0.02 0.06 0.01 0.01 0.00 0.00 0.00 0.00 0.00 0.00 0.00 0.00
0.00 0.00 0.00 0.00 0.00 0.00 0.00 0.00 0.00 0.00 0.00 0.00 0.00 0.00 0.00 0.00 0.00 0.00 0.00 0.00 0.00 0.00 0.01 0.02 0.03 0.00 0.00 0.00 0.01 0.04 0.03 0.02 0.04 0.03 0.01 0.00 0.01 0.02 0.01 0.00 0.00 0.00 0.00 0.00 0.00
0.00 0.00 0.00 0.00 0.00 0.00 0.00 0.00 0.00 0.00 0.00 0.00 0.00 0.00 0.00 0.00 0.00 0.00 0.00 0.00 0.00 0.00 0.00 0.02 0.02 0.00 0.01 0.02 0.04 0.03 0.02 0.03 0.01 0.01 0.04 0.02 0.03 0.03 0.02 0.00 0.00 0.00 0.00 0.00 0.00
0.00 0.00 0.00 0.00 0.00 0.00 0.00 0.00 0.00 0.00 0.00 0.00 0.00 0.00 0.00 0.00 0.00 0.00 0.00 0.00 0.00 0.00 0.00 0.01 0.03 0.00 0.00 0.00 0.01 0.02 0.09 0.10 0.05 0.02 0.07 0.12 0.14 0.04 0.02 0.01 0.02 0.01 0.00 0.00 0.00
0.00 0.00 0.00 0.00 0.00 0.00 0.00 0.00 0.00 0.00 0.00 0.00 0.00 0.00 0.00 0.00 0.01 0.00 0.00 0.00 0.00 0.00 0.02 0.04 0.01 0.00 0.00 0.00 0.00 0.05 0.07 0.09 0.05 0.05 0.10 0.18 0.18 0.12 0.04 0.02 0.07 0.05 0.00 0.00 0.00
0.00 0.00 0.00 0.00 0.00 0.00 0.00 0.00 0.00 0.00 0.00 0.00 0.00 0.00 0.00 0.00 0.00 0.00 0.00 0.00 0.00 0.00 0.00 0.00 0.00 0.01 0.03 0.02 0.07 0.07 0.05 0.10 0.06 0.07 0.08 0.13 0.19 0.15 0.08 0.09 0.18 0.05 0.01 0.01 0.01
0.00 0.00 0.00 0.00 0.00 0.00 0.00 0.00 0.00 0.00 0.00 0.00 0.00 0.00 0.00 0.01 0.00 0.00 0.00 0.00 0.00 0.00 0.00 0.00 0.00 0.01 0.02 0.02 0.08 0.06 0.06 0.09 0.13 0.14 0.14 0.17 0.15 0.19 0.23 0.31 0.23 0.03 0.01 0.00 0.00
0.00 0.00 0.00 0.00 0.00 0.00 0.00 0.00 0.00 0.00 0.00 0.00 0.00 0.00 0.00 0.00 0.00 0.00 0.00 0.00 0.00 0.00 0.00 0.00 0.01 0.00 0.00 0.01 0.05 0.04 0.02 0.07 0.10 0.16 0.17 0.10 0.13 0.18 0.36 0.37 0.08 0.01 0.00 0.00 0.00
0.00 0.00 0.00 0.00 0.00 0.00 0.00 0.00 0.00 0.00 0.00 0.00 0.00 0.00 0.00 0.00 0.00 0.00 0.00 0.00 0.00 0.00 0.00 0.00 0.01 0.01 0.00 0.00 0.00 0.04 0.09 0.09 0.12 0.23 0.23 0.20 0.21 0.19 0.33 0.24 0.08 0.03 0.00 0.00 0.00
MSLP
1022.18 1021.73 1021.41 1021.19 1020.81 1020.40 1019.96 1019.55 1019.14 1018.69 1018.16 1017.66 1017.25 1016.91 1016.60 1016.37 1016.09 1015.57 1015.46 1014.89 1014.10 1013.28 1012.72 1012.42 1012.67 1012.43 1012.60 1012.51 1012.56 1012.71 1012.74 1010.00 1008.46 1008.90 1008.53 1007.70 1007.50 1006.70 1006.44 1006.52 1006.22 1005.89 1005.56 1005.39 1005.34
1022.28 1021.95 1021.60 1021.29 1020.95 1020.48 1019.99 1019.52 1019.06 1018.52 1017.94 1017.36 1016.91 1016.57 1016.28 1016.20 1016.41 1016.11 1015.04 1014.37 1013.74 1013.22 1012.80 1012.63 1012.58 1012.52 1012.09 1011.68 1011.90 1011.73 1010.83 1007.77 1007.52 1007.63 1007.47 1007.39 1007.08 1006.62 1006.48 1006.43 1006.12 1006.00 1005.55 1005.54 1005.66
1022.33 1022.07 1021.72 1021.38 1020.99 1020.54 1020.03 1019.46 1018.90 1018.26 1017.65 1017.06 1016.62 1016.40 1016.27 1016.40 1016.08 1015.89 1015.23 1014.54 1013.83 1013.26 1012.55 1012.27 1012.13 1012.27 1011.85 1011.40 1010.68 1010.23 1007.62 1007.05 1007.17 1007.21 1007.31 1007.28 1007.13 1006.63 1006.33 1006.25 1005.77 1005.85 1005.39 1005.52 1005.43
1022.45 1022.16 1021.85 1021.46 1021.02 1020.49 1019.90 1019.32 1018.74 1018.06 1017.46 1016.78 1016.26 1016.07 1016.02 1016.41 1017.20 1016.17 1015.37 1014.79 1014.04 1013.55 1012.96 1012.67 1012.56 1012.21 1011.62 1010.74 1010.48 1009.65 1007.66 1008.33 1007.73 1007.36 1007.56 1007.15 1006.91 1006.39 1006.40 1005.50 1005.25 1005.41 1005.28 1004.90 1005.22
1022.63 1022.32 1021.88 1021.37 1020.81 1020.22 1019.62 1018.96 1018.26 1017.66 1017.21 1016.82 1016.04 1015.77 1016.16 1016.57 1016.84 1016.10 1015.54 1014.97 1014.44 1014.18 1014.02 1013.63 1013.10 1012.58 1011.55 1010.77 1010.52 1009.48 1007.59 1008.21 1007.87 1007.73 1007.40 1007.24 1006.56 1006.77 1005.69 1005.43 1005.23 1005.23 1005.35 1005.36 1004.93
1022.76 1022.30 1021.79 1021.21 1020.57 1019.87 1019.25 1018.52 1017.92 1017.33 1016.94 1016.62 1016.47 1016.36 1016.65 1016.96 1016.75 1016.38 1015.84 1015.23 1014.94 1014.60 1014.49 1014.26 1013.70 1013.21 1012.12 1011.34 1010.91 1009.39 1008.92 1008.19 1007.92 1007.55 1007.49 1007.14 1006.69 1007.11 1003.67 1005.15 1005.13 1005.26 1005.21 1004.83 1005.03
1022.79 1022.27 1021.77 1021.11 1020.39 1019.69 1018.95 1018.37 1017.67 1017.22 1016.59 1015.84 1016.23 1016.53 1016.89 1017.44 1017.03 1016.63 1016.12 1015.72 1015.23 1015.00 1014.71 1014.11 1013.99 1013.78 1012.57 1011.68 1010.79 1010.48 1009.64 1008.34 1007.00 1007.30 1006.95 1007.10 1006.14 1004.84 1003.36 1004.98 1004.90 1004.66 1004.53 1004.55 1004.36
1022.89 1022.40 1021.81 1021.18 1020.33 1019.59 1018.93 1018.13 1017.66 1017.13 1016.65 1016.13 1016.21 1016.62 1017.18 1017.19 1017.10 1016.62 1016.51 1016.06 1015.36 1014.96 1014.68 1014.08 1013.80 1013.58 1013.10 1012.17 1011.24 1011.20 1010.55 1008.44 1006.50 1006.72 1006.24 1007.64 1003.06 1002.99 1003.69 1004.57 1004.19 1004.38 1004.33 1003.88 1003.67
1023.02 1022.50 1021.87 1021.26 1020.60 1019.81 1018.95 1018.01 1017.63 1017.26 1016.67 1016.35 1016.71 1017.03 1017.97 1017.20 1016.87 1017.14 1016.86 1016.50 1015.74 1015.26 1014.78 1014.20 1013.87 1013.85 1013.18 1012.89 1012.39 1011.72 1010.31 1009.50 1007.88 1006.97 1006.42 1006.05 1002.29 1003.41 1003.00 1003.20 1003.40 1003.65 1003.82 1003.70 1003.37
1022.97 1022.44 1021.81 1021.23 1020.71 1020.23 1019.39 1018.33 1018.01 1017.64 1017.16 1016.83 1017.40 1018.21 1018.49 1018.35 1017.83 1017.56 1016.97 1016.55 1016.23 1015.80 1015.46 1015.25 1015.09 1014.94 1014.86 1014.77 1014.32 1013.39 1012.43 1010.96 1009.29 1008.25 1006.79 1005.59 1002.56 1003.01 1003.11 1002.97 1002.91 1002.93 1003.07 1003.15 1003.26
1022.91 1022.36 1021.65 1021.21 1020.80 1020.64 1019.92 1019.39 1019.72 1019.33 1019.85 1020.50 1020.64 1020.06 1019.90 1019.25 1018.20 1017.76 1017.40 1017.08 1016.82 1016.88 1016.98 1016.61 1016.65 1016.25 1015.94 1015.73 1015.42 1014.87 1014.08 1012.85 1011.39 1010.35 1009.28 1005.90 1004.97 1004.74 1003.80 1002.81 1002.63 1002.41 1002.68 1002.83 1002.56
1023.20 1022.48 1021.73 1021.08 1020.88 1020.90 1020.95 1021.35 1022.39 1022.42 1021.75 1020.76 1020.62 1020.42 1019.85 1019.34 1018.85 1018.23 1017.91 1018.03 1017.94 1017.98 1017.77 1017.75 1017.20 1016.45 1016.25 1015.82 1015.51 1015.16 1014.45 1013.19 1011.47 1010.12 1009.09 1007.53 1004.84 1004.31 1004.04 1003.46 1003.09 1002.44 1001.94 1001.82 1002.29
1023.32 1022.52 1021.83 1021.06 1020.84 1021.39 1021.75 1021.94 1022.04 1022.33 1022.40 1021.39 1020.70 1020.38 1019.77 1019.60 1019.39 1018.73 1018.58 1018.48 1018.52 1018.52 1018.43 1018.52 1017.39 1016.83 1016.29 1015.68 1015.20 1014.74 1014.36 1013.16 1012.15 1010.50 1009.47 1008.48 1005.61 1004.22 1003.47 1002.89 1002.60 1002.22 1001.63 1001.48 1001.38
1023.24 1022.54 1021.89 1021.17 1021.40 1021.87 1021.82 1021.89 1021.83 1022.02 1022.22 1022.44 1021.20 1020.65 1020.27 1020.04 1019.68 1019.01 1018.77 1019.09 1018.92 1018.84 1018.67 1018.34 1017.06 1016.65 1015.74 1015.01 1014.64 1014.10 1013.66 1013.01 1012.26 1011.32 1009.68 1008.17 1004.95 1003.73 1002.70 1001.52 1001.23 1000.97 1001.21 1000.47 1000.82
1023.29 1022.55 1022.02 1021.63 1022.38 1022.43 1022.34 1021.87 1021.68 1022.03 1023.18 1022.86 1021.71 1020.78 1020.97 1021.37 1020.62 1019.37 1019.10 1018.96 1019.25 1019.07 1019.41 1018.32 1017.35 1016.30 1015.25 1014.52 1014.20 1013.64 1013.34 1012.97 1012.30 1011.34 1010.46 1008.95 1007.39 1003.70 1002.18 1000.64 1000.37 1000.05 999.93 999.84 1000.02
1023.35 1022.86 1022.40 1022.12 1022.44 1022.16 1022.04 1021.81 1022.07 1023.09 1024.28 1023.50 1022.72 1022.03 1021.75 1021.25 1020.89 1020.34 1019.76 1019.63 1019.56 1019.66 1019.14 1018.42 1016.99 1016.09 1015.06 1014.43 1014.04 1013.09 1012.53 1012.11 1010.82 1010.68 1009.38 1007.91 1007.07 1003.60 1002.20 1000.49 999.38 998.97 998.80 999.05 999.53
1023.40 1022.98 1022.72 1022.61 1023.07 1021.93 1021.89 1022.35 1023.65 1024.78 1025.33 1024.58 1023.57 1023.12 1022.78 1022.16 1021.51 1021.30 1020.97 1020.94 1021.37 1020.97 1019.67 1017.67 1016.66 1015.38 1014.58 1014.27 1013.32 1013.17 1012.76 1012.09 1010.96 1009.66 1007.36 1005.93 1005.50 1003.30 1001.13 1000.17 998.97 998.20 997.87 997.93 998.46
1023.19 1023.08 1023.07 1022.79 1022.63 1022.04 1022.33 1023.50 1025.14 1026.49 1026.14 1025.43 1024.56 1023.99 1023.72 1023.17 1022.69 1022.60 1022.57 1022.70 1022.55 1022.59 1021.39 1019.90 1016.65 1015.83 1014.81 1015.10 1013.99 1012.90 1012.43 1012.16 1010.78 1008.63 1006.25 1005.28 1004.09 1001.51 1000.52 999.18 998.41 998.43 997.96 998.02 998.11
1023.30 1023.61 1023.46 1022.93 1022.43 1022.16 1023.47 1025.41 1027.22 1027.02 1026.57 1025.86 1025.27 1024.82 1024.67 1024.26 1024.49 1024.16 1024.04 1024.20 1023.65 1023.13 1022.68 1020.69 1018.02 1016.12 1014.91 1014.37 1014.56 1013.09 1012.53 1011.98 1010.82 1008.27 1006.81 1004.41 1002.09 1000.54 999.46 998.81 998.09 997.78 997.80 997.77 997.80
1024.61 1024.64 1024.19 1023.46 1022.79 1023.18 1024.78 1026.90 1027.26 1026.73 1026.33 1026.18 1026.36 1026.18 1026.13 1025.65 1025.57 1025.28 1024.69 1024.13 1023.61 1023.00 1022.36 1021.38 1019.05 1016.14 1014.81 1014.04 1014.09 1014.01 1013.05 1012.13 1011.26 1009.59 1006.86 1003.92 1002.73 1002.83 1002.00 1001.24 999.65 997.75 997.53 997.36 997.14
1025.38 1025.68 1024.54 1023.72 1023.41 1024.84 1026.88 1027.45 1027.10 1026.42 1026.29 1026.45 1026.56 1026.79 1027.18 1026.88 1026.19 1025.85 1025.25 1023.84 1022.90 1022.16 1021.88 1021.25 1020.81 1016.99 1015.43 1014.91 1014.45 1013.80 1013.56 1013.32 1012.12 1010.76 1008.67 1005.93 1004.55 1005.42 1004.29 1002.22 1000.05 998.34 997.63 997.62 997.13
1026.35 1026.64 1025.43 1024.60 1025.88 1027.15 1027.96 1027.77 1027.06 1026.54 1026.17 1026.26 1026.52 1027.02 1027.08 1026.74 1026.19 1025.84 1024.88 1023.81 1022.37 1022.03 1021.36 1020.96 1020.22 1018.24 1015.99 1014.81 1014.97 1015.05 1014.51 1013.76 1012.49 1010.76 1009.59 1008.18 1007.16 1006.39 1004.78 1002.61 1000.22 998.91 998.58 998.11 998.31
1027.62 1027.56 1026.19 1025.94 1027.85 1028.87 1028.61 1028.02 1027.31 1026.67 1026.31 1026.25 1026.39 1026.53 1026.66 1026.83 1026.73 1025.50 1024.29 1022.59 1021.90 1021.68 1020.93 1020.31 1019.72 1018.53 1016.06 1015.41 1015.32 1015.32 1015.01 1013.56 1011.41 1011.47 1010.98 1009.76 1009.03 1007.87 1005.95 1003.67 1001.83 1000.04 999.56 999.19 998.76
1028.18 1028.38 1027.99 1028.14 1029.18 1029.73 1029.67 1028.68 1027.61 1026.62 1026.28 1026.47 1026.40 1026.48 1026.67 1026.20 1025.94 1025.12 1024.30 1022.67 1021.93 1021.20 1020.38 1020.09 1019.80 1019.44 1018.68 1017.45 1016.90 1016.49 1016.00 1015.41 1014.20 1013.61 1013.12 1012.69 1011.81 1010.12 1007.81 1005.59 1002.98 1001.24 1000.95 1000.33 999.47
1029.09 1030.02 1030.01 1029.87 1029.77 1030.15 1030.03 1029.43 1028.34 1027.43 1027.04 1026.70 1026.48 1026.49 1026.81 1026.20 1025.54 1024.95 1024.13 1023.23 1021.31 1020.95 1020.67 1020.42 1019.87 1018.98 1017.91 1017.08 1016.81 1016.88 1017.43 1016.50 1015.81 1015.72 1015.16 1014.20 1012.88 1011.64 1009.74 1007.37 1005.49 1003.71 1002.80 1002.01 1001.45
1029.23 1029.95 1030.30 1030.46 1030.22 1030.26 1029.99 1029.58 1028.75 1028.17 1027.78 1027.02 1026.82 1026.40 1026.48 1026.43 1025.76 1024.78 1024.77 1023.66 1022.81 1021.38 1021.23 1020.70 1020.00 1018.76 1017.49 1016.76 1016.51 1016.92 1017.63 1017.46 1016.91 1016.18 1015.31 1014.56 1013.23 1012.91 1011.26 1009.16 1007.10 1004.84 1005.07 1004.07 1004.46
1028.87 1029.23 1029.66 1030.03 1030.37 1030.44 1029.87 1029.45 1028.92 1028.46 1027.54 1027.28 1026.95 1026.62 1025.73 1025.18 1024.86 1023.98 1023.89 1023.46 1023.15 1022.93 1022.08 1021.33 1020.55 1019.17 1017.60 1016.52 1016.30 1017.19 1018.15 1017.98 1017.94 1017.39 1017.15 1015.85 1016.37 1014.82 1012.51 1010.86 1008.70 1007.45 1006.93 1006.36 1005.79
Thickness
5624 5625 5624 5623 5622 5622 5621 5621 5621 5621 5622 5622 5621 5619 5617 5614 5611 5612 5609 5612 5614 5616 5619 5620 5614 5614 5609 5607 5606 5602 5593 5624 5645 5640 5648 5659 5652 5662 5665 5664 5671 5675 5685 5696 5704
5620 5621 5620 5618 5617 5616 5616 5616 5616 5616 5616 5616 5615 5613 5610 5606 5597 5593 5601 5603 5603 5605 5605 5602 5598 5595 5598 5601 5593 5593 5595 5634 5642 5644 5640 5645 5645 5649 5652 5650 5659 5666 5678 5683 5689
5617 5616 5615 5613 5613 5611 5611 5611 5610 5610 5610 5608 5605 5601 5596 5590 5587 5586 5586 5587 5588 5588 5590 5589 5587 5582 5582 5586 5589 5588 5611 5636 5628 5629 5628 5629 5630 5640 5642 5642 5651 5653 5666 5672 5680
5612 5611 5609 5608 5607 5607 5605 5604 5603 5601 5601 5601 5599 5594 5587 5580 5577 5567 5568 5569 5570 5569 5569 5568 5564 5564 5567 5570 5573 5570 5604 5597 5606 5609 5607 5615 5622 5626 5624 5646 5650 5651 5659 5666 5669
5607 5605 5605 5604 5603 5601 5600 5599 5599 5596 5595 5591 5589 5585 5575 5562 5555 5557 5554 5553 5550 5546 5539 5536 5538 5537 5543 5546 5548 5548 5590 5575 5584 5585 5592 5595 5608 5604 5619 5633 5637 5640 5645 5651 5660
5602 5600 5599 5599 5598 5597 5595 5594 5592 5589 5585 5581 5575 5569 5559 5543 5543 5538 5534 5530 5524 5520 5513 5507 5507 5501 5507 5513 5514 5539 5546 5555 5560 5566 5571 5575 5587 5583 5637 5622 5625 5628 5633 5643 5648
5597 5595 5594 5593 5592 5591 5588 5586 5584 5581 5577 5574 5564 5555 5542 5527 5523 5518 5513 5505 5499 5491 5484 5480 5473 5467 5480 5484 5494 5493 5499 5521 5547 5551 5555 5556 5564 5592 5636 5610 5610 5615 5628 5634 5640
5590 5587 5587 5585 5585 5584 5580 5579 5574 5571 5566 5560 5551 5539 5520 5513 5504 5497 5485 5472 5462 5452 5446 5442 5438 5431 5430 5442 5452 5451 5456 5488 5538 5528 5542 5522 5575 5605 5604 5591 5603 5608 5613 5629 5637
5582 5580 5579 5576 5574 5574 5571 5569 5563 5559 5554 5546 5533 5521 5493 5493 5482 5465 5449 5435 5424 5414 5406 5404 5398 5394 5400 5390 5393 5418 5423 5447 5475 5505 5509 5510 5567 5572 5586 5590 5596 5600 5601 5615 5630
5576 5573 5570 5566 5562 5559 5558 5556 5549 5544 5535 5528 5516 5498 5478 5457 5444 5428 5413 5395 5381 5369 5365 5359 5351 5346 5339 5330 5318 5358 5364 5389 5423 5462 5473 5492 5539 5557 5563 5568 5580 5590 5596 5604 5616
5569 5566 5562 5557 5551 5545 5545 5539 5521 5513 5497 5480 5468 5462 5449 5436 5415 5389 5375 5362 5343 5329 5313 5321 5308 5298 5306 5311 5318 5316 5319 5329 5366 5399 5406 5451 5472 5486 5524 5549 5559 5576 5584 5591 5607
5559 5556 5551 5548 5541 5533 5524 5507 5490 5479 5465 5467 5454 5439 5426 5404 5381 5367 5348 5321 5309 5298 5296 5293 5277 5292 5294 5298 5296 5293 5287 5303 5346 5386 5389 5408 5441 5476 5496 5509 5532 5556 5575 5587 5595
5547 5545 5542 5540 5532 5520 5506 5494 5483 5470 5452 5449 5439 5422 5403 5383 5351 5336 5318 5303 5293 5285 5278 5259 5280 5283 5284 5281 5277 5278 5266 5288 5309 5353 5362 5373 5398 5440 5472 5498 5520 5538 5561 5573 5585
5540 5538 5534 5532 5522 5508 5496 5484 5472 5460 5441 5426 5414 5395 5375 5351 5339 5323 5308 5289 5284 5267 5271 5261 5276 5276 5273 5276 5279 5268 5292 5298 5305 5313 5323 5375 5376 5427 5458 5484 5505 5530 5542 5570 5577
5532 5529 5524 5517 5505 5492 5484 5476 5464 5447 5387 5407 5395 5380 5350 5322 5304 5317 5298 5288 5269 5270 5254 5259 5258 5262 5268 5274 5279 5273 5288 5286 5289 5286 5302 5325 5329 5389 5440 5473 5490 5516 5538 5558 5569
5524 5519 5514 5509 5497 5488 5477 5466 5449 5410 5338 5390 5370 5352 5337 5326 5314 5301 5290 5279 5269 5265 5270 5254 5267 5264 5269 5279 5280 5291 5289 5290 5299 5288 5288 5323 5327 5363 5404 5455 5492 5513 5531 5545 5554
5517 5512 5506 5498 5483 5481 5470 5453 5410 5371 5389 5374 5357 5336 5318 5315 5305 5286 5274 5257 5230 5226 5242 5261 5266 5270 5278 5267 5286 5281 5276 5247 5274 5272 5314 5341 5325 5361 5418 5453 5479 5506 5525 5541 5551
5512 5504 5496 5488 5478 5472 5457 5429 5381 5388 5366 5358 5343 5325 5312 5294 5295 5277 5265 5241 5230 5214 5229 5229 5249 5265 5280 5262 5268 5275 5282 5265 5288 5298 5334 5355 5324 5373 5417 5451 5470 5485 5506 5517 5529
5506 5496 5486 5480 5473 5464 5434 5378 5366 5356 5353 5340 5326 5309 5300 5299 5269 5254 5238 5205 5217 5213 5224 5229 5254 5277 5284 5287 5269 5284 5280 5289 5294 5317 5328 5368 5378 5395 5418 5439 5471 5482 5494 5506 5520
5489 5480 5473 5469 5463 5444 5408 5397 5374 5361 5346 5326 5288 5294 5262 5270 5256 5249 5232 5219 5230 5225 5230 5240 5243 5284 5296 5293 5282 5275 5287 5284 5290 5305 5341 5390 5395 5380 5362 5375 5432 5474 5492 5502 5521
5475 5464 5463 5459 5449 5420 5372 5360 5362 5357 5339 5316 5296 5273 5243 5243 5256 5228 5218 5244 5243 5256 5244 5246 5227 5278 5295 5277 5272 5284 5273 5280 5283 5292 5314 5373 5392 5345 5350 5375 5425 5465 5493 5503 5509
5460 5446 5449 5444 5414 5389 5364 5365 5364 5345 5334 5313 5297 5266 5245 5260 5251 5241 5235 5250 5260 5258 5237 5249 5244 5261 5288 5295 5282 5280 5274 5275 5286 5309 5321 5332 5358 5345 5357 5391 5441 5461 5475 5490 5497
5439 5431 5436 5427 5381 5369 5364 5359 5353 5338 5327 5312 5299 5292 5266 5265 5256 5250 5258 5274 5271 5266 5258 5262 5242 5256 5286 5295 5289 5278 5272 5278 5306 5310 5315 5331 5331 5336 5356 5391 5428 5456 5469 5480 5494
5427 5409 5413 5400 5379 5346 5334 5346 5343 5335 5320 5306 5296 5292 5281 5273 5263 5253 5261 5274 5275 5274 5292 5278 5260 5260 5261 5268 5274 5269 5268 5272 5279 5283 5289 5292 5294 5312 5343 5370 5417 5448 5456 5469 5485
5413 5396 5389 5370 5373 5355 5341 5315 5327 5324 5310 5298 5289 5290 5272 5268 5265 5259 5267 5268 5281 5285 5277 5271 5265 5281 5286 5287 5287 5269 5259 5271 5269 5265 5269 5279 5294 5304 5332 5367 5398 5422 5439 5454 5467
5402 5385 5372 5361 5361 5350 5338 5315 5325 5309 5293 5292 5285 5283 5272 5256 5253 5264 5260 5264 5261 5273 5271 5273 5278 5287 5290 5304 5302 5284 5271 5267 5272 5273 5281 5292 5301 5310 5329 5359 5384 5414 5421 5437 5442
5407 5397 5387 5365 5350 5336 5331 5324 5309 5304 5298 5291 5284 5276 5274 5281 5274 5273 5266 5264 5265 5261 5265 5261 5275 5285 5297 5317 5315 5298 5271 5268 5271 5275 5277 5289 5289 5308 5333 5353 5374 5396 5411 5423 5435